Regional Weather Roundup
Issued by NWS

Home | Current Version | Previous Version | Graphics & Text | Print | Product List | Glossary Off
Versions: 1 2 3 4 5 6 7 8 9 10 11 12 13 14 15 16 17 18 19 20 21 22 23 24 25 26 27 28 29 30 31 32 33 34 35 36 37 38 39 40 41 42 43 44 45 46 47 48 49 50

000
ASUS43 KDMX 271907
RWRIA

WEATHER ROUNDUP FOR IOWA
NATIONAL WEATHER SERVICE DES MOINES IA
200 PM CDT WED MAY 27 2015

NOTE: "FAIR" INDICATES FEW OR NO CLOUDS BELOW 12,000 FEET WITH NO
SIGNIFICANT WEATHER AND/OR OBSTRUCTIONS TO VISIBILITY.

* - THESE STATIONS ARE NOT NWS STATIONS...THUS NOT UNDER NWS
QUALITY CONTROL.  THEY ALSO DO NOT REPORT WEATHER SUCH
AS PRECIPITATION OR FOG.

IAZ001>003-012>014-020>022-031>034-043>046-272000-
   NORTHWEST IOWA

CITY           SKY/WX    TMP DP  RH WIND       PRES   REMARKS
CARROLL *      SUNNY     79  54  41 W9        30.05S
CHEROKEE *     SUNNY     79  55  44 W8        30.03F
DENISON *      SUNNY     79  55  44 W10       30.04S
LE MARS *      SUNNY     81  52  36 VRB6G12   30.03F HX  80
ORANGE CITY *  SUNNY     79  54  41 NW9       30.03F
SHELDON *      SUNNY     81  75  83 W9G15     30.02S HX  86
SIOUX CITY     SUNNY     82  54  37 CALM      30.03F HX  81
SPENCER        SUNNY     82  54  37 W15       30.02S HX  81
STORM LAKE *   SUNNY     79  54  41 NW10      30.06S
$$

IAZ055>058-069>071-079>083-090>094-272000-
   SOUTHWEST IOWA

CITY           SKY/WX    TMP DP  RH WIND       PRES   REMARKS
ATLANTIC *     SUNNY     81  55  41 W10       30.06S HX  80
AUDUBON *      SUNNY     81  54  39 NW3       30.07S HX  80
CLARINDA *     SUNNY     81  57  44 S9        30.09F HX  81
COUNCIL BLFS * SUNNY     81  55  41 SW7       30.07F HX  80
CRESTON *      MOSUNNY   77  57  50 SW10      30.08F
HARLAN  *      SUNNY     79  54  41 NW9G17    30.09S
LAMONI         SUNNY     80  56  43 SW5       30.09S HX  80
RED OAK *      SUNNY     81  55  41 W10G20    30.07F HX  80
SHENANDOAH *   SUNNY     81  54  39 W6        30.08F HX  80
$$

IAZ047>049-059>061-072>074-084-272000-
   CENTRAL IOWA

CITY           SKY/WX    TMP DP  RH WIND       PRES   REMARKS
AMES           SUNNY     79  57  46 W12       30.05S HX  80
ANKENY *       SUNNY     79  57  47 VRB5      30.05S HX  80
CHARITON *     SUNNY     77  55  47 W6        30.08S
DES MOINES     MOSUNNY   80  54  40 W7        30.05S HX  80
GRINNELL*      SUNNY     75  57  53 NW5       30.06S
KNOXVILLE *    SUNNY     77  54  44 VRB5      30.06R
MARSHALLTOWN   SUNNY     77  58  51 W3        30.04F
PELLA *        SUNNY     77  63  61 W7        30.07S
PERRY *          N/A     79  55  44 SW8       30.05S
$$

IAZ004>006-015-016-023>025-035-036-272000-
   NORTH CENTRAL IOWA

CITY           SKY/WX    TMP DP  RH WIND       PRES   REMARKS
ALGONA *       SUNNY     79  43  27 W9G17     30.03S
CLARION *      SUNNY     79 -35   1 W9G18     30.03S
ESTHERVILLE    SUNNY     80  54  40 W12G22    30.01S HX  80
FORT DODGE *   SUNNY     79  61  53 W7        30.05R HX  80
MASON CITY     SUNNY     78  59  51 SW15      30.03S
FOREST CITY *  SUNNY     77  59  53 SW7       30.02S
IOWA FALLS *     N/A     77  59  53 W9        30.05F
$$

IAZ007>011-017>019-026>030-037>042-050>054-066-272000-
   NORTHEAST IOWA

CITY           SKY/WX    TMP DP  RH WIND       PRES   REMARKS
CEDAR RAPIDS   SUNNY     75  60  59 SW7       30.04F
CHARLES CITY * SUNNY     77  59  53 SW14G20   30.03S
CLINTON *      SUNNY     73  59  60 NW12G20   30.06R
DECORAH *      PTSUNNY   75  59  57 VRB7G16   30.02S
DUBUQUE        PTSUNNY   73  58  59 W9        30.04S
MONTICELLO *   MOSUNNY   73  61  64 W9        30.04S
OELWEIN *      MOSUNNY   75  59  57 W10G17    30.05S
WATERLOO         N/A     78  58  49 W9        30.02F
$$

IAZ064-065-067-068-078-272000-
   EAST CENTRAL IOWA

CITY           SKY/WX    TMP DP  RH WIND       PRES   REMARKS
DAVENPORT      SUNNY     76  58  53 NW14G20   30.04S
IOWA CITY      SUNNY     76  56  49 NW12      30.05F
MT. PLEASANT * MOSUNNY   75  59  57 W5        30.06S
MUSCATINE *    SUNNY     77  57  50 VRB6G15   30.04F
QUAD CITIES    SUNNY     77  57  50 NW8G18    30.02S
$$

IAZ062-063-075>077-085>089-095>099-272000-
   SOUTHEAST IOWA

CITY           SKY/WX    TMP DP  RH WIND       PRES   REMARKS
BURLINGTON     MOSUNNY   76  60  57 VRB7      30.05S
FAIRFIELD *    SUNNY     75  59  57 W6        30.07R
FORT MADISON * MOSUNNY   73  63  68 W6        30.07S
KEOKUK *       MOSUNNY   75  61  60 VRB7G15   30.06S
OSKALOOSA *      N/A     77  55  47 NW6       30.07R
CENTERVILLE *  SUNNY     77  77 100 NW7       30.10R
OTTUMWA        SUNNY     76  57  51 CALM      30.06S
WASHINGTON *   SUNNY     77  59  53 W8        30.07S
$$

ABBREVIATIONS USED IN REMARKS
   TC - TEMPERATURES IN CELSIUS
  WCI - WIND CHILL INDEX
   HX - HEAT INDEX
  VSB - VISIBILITY
$$



USA.gov is the U.S. government's official web portal to all federal, state and local government web resources and services.